| time (UTC) | temp F | wind direction | speed MPH | gust MPH | rain 1hr in | rain 24hr in | rain mn in | humidity % | barometer mb |
| 20260503231527 | 82 | 269 | 0.0 | 9.0 | 0.00 | 0.00 | 0.00 | 32 | 1013.2 |
| 20260503230026 | 83 | 168 | 0.0 | 7.0 | 0.00 | 0.00 | 0.00 | 32 | 1013.3 |
| 20260503224525 | 83 | 195 | 0.0 | 6.0 | 0.00 | 0.00 | 0.00 | 31 | 1013.3 |
| 20260503223025 | 82 | 236 | 0.0 | 7.0 | 0.00 | 0.00 | 0.00 | 32 | 1013.3 |
| 20260503221530 | 83 | 63 | 1.0 | 8.0 | 0.00 | 0.00 | 0.00 | 30 | 1013.7 |
| 20260503220021 | 84 | 248 | 1.0 | 8.0 | 0.00 | 0.00 | 0.00 | 31 | 1013.7 |
| 20260503214518 | 84 | 327 | 0.0 | 10.0 | 0.00 | 0.00 | 0.00 | 32 | 1013.7 |
| 20260503213027 | 84 | 277 | 2.0 | 7.0 | 0.00 | 0.00 | 0.00 | 31 | 1013.9 |
| 20260503211518 | 83 | 184 | 0.0 | 9.0 | 0.00 | 0.00 | 0.00 | 30 | 1014.2 |
| 20260503210012 | 84 | 246 | 2.0 | 8.0 | 0.00 | 0.00 | 0.00 | 31 | 1014.5 |
| 20260503204510 | 83 | 226 | 1.0 | 8.0 | 0.00 | 0.00 | 0.00 | 31 | 1014.8 |
| 20260503203006 | 83 | 245 | 1.0 | 7.0 | 0.00 | 0.00 | 0.00 | 31 | 1015.0 |
| 20260503201507 | 83 | 257 | 3.0 | 9.0 | 0.00 | 0.00 | 0.00 | 30 | 1015.4 |
| 20260503200101 | 83 | 155 | 0.0 | 8.0 | 0.00 | 0.00 | 0.00 | 32 | 1015.7 |
| 20260503194557 | 82 | 232 | 2.0 | 10.0 | 0.00 | 0.00 | 0.00 | 32 | 1015.8 |
| 20260503193102 | 82 | 296 | 0.0 | 5.0 | 0.00 | 0.00 | 0.00 | 32 | 1016.2 |
| 20260503191552 | 82 | 269 | 2.0 | 8.0 | 0.00 | 0.00 | 0.00 | 35 | 1016.4 |
| 20260503190049 | 81 | 261 | 0.0 | 8.0 | 0.00 | 0.00 | 0.00 | 34 | 1016.6 |
| 20260503184549 | 82 | 296 | 1.0 | 7.0 | 0.00 | 0.00 | 0.00 | 37 | 1016.6 |
| 20260503183047 | 82 | 146 | 0.0 | 6.0 | 0.00 | 0.00 | 0.00 | 36 | 1016.7 |
| 20260503181615 | 81 | 255 | 0.0 | 7.0 | 0.00 | 0.00 | 0.00 | 39 | 1017.3 |
| 20260503180042 | 80 | 234 | 1.0 | 6.0 | 0.00 | 0.00 | 0.00 | 38 | 1017.5 |
| 20260503174538 | 79 | 252 | 2.0 | 12.0 | 0.00 | 0.00 | 0.00 | 40 | 1018.0 |
| 20260503173050 | 79 | 257 | 1.0 | 8.0 | 0.00 | 0.00 | 0.00 | 41 | 1018.0 |
| 20260503171532 | 78 | 278 | 1.0 | 15.0 | 0.00 | 0.00 | 0.00 | 42 | 1018.4 |
| 20260503081518 | 59 | 198 | 0.0 | 0.0 | 0.00 | 0.00 | 0.00 | 70 | 1017.3 |
| 20260503071514 | 60 | 198 | 0.0 | 0.0 | 0.00 | 0.00 | 0.00 | 67 | 1017.6 |
| 20260503054600 | 62 | 198 | 0.0 | 0.0 | 0.00 | 0.00 | 0.00 | 63 | 1017.7 |
| 20260503053058 | 62 | 198 | 0.0 | 0.0 | 0.00 | 0.00 | 0.00 | 63 | 1017.7 |
| 20260503051556 | 63 | 198 | 0.0 | 0.0 | 0.00 | 0.00 | 0.00 | 62 | 1017.6 |
| 20260503050053 | 63 | 198 | 0.0 | 0.0 | 0.00 | 0.00 | 0.00 | 62 | 1017.5 |
| 20260503044619 | 64 | 198 | 0.0 | 0.0 | 0.00 | 0.00 | 0.00 | 60 | 1017.5 |
| 20260503043053 | 64 | 198 | 0.0 | 0.0 | 0.00 | 0.00 | 0.00 | 58 | 1017.5 |
| 20260503041555 | 65 | 198 | 0.0 | 0.0 | 0.00 | 0.00 | 0.00 | 56 | 1017.5 |
| 20260503040051 | 65 | 208 | 0.0 | 1.0 | 0.00 | 0.00 | 0.00 | 56 | 1017.6 |
| 20260503034557 | 65 | 268 | 0.0 | 0.0 | 0.00 | 0.00 | 0.00 | 58 | 1017.6 |
| 20260503033051 | 66 | 268 | 0.0 | 0.0 | 0.00 | 0.00 | 0.00 | 57 | 1017.5 |
| 20260503031550 | 66 | 268 | 0.0 | 0.0 | 0.00 | 0.00 | 0.00 | 56 | 1017.3 |
| 20260503024556 | 68 | 268 | 0.0 | 0.0 | 0.00 | 0.00 | 0.00 | 51 | 1017.1 |
| 20260503023054 | 68 | 268 | 0.0 | 0.0 | 0.00 | 0.00 | 0.00 | 49 | 1017.0 |
| 20260503021548 | 68 | 269 | 0.0 | 0.0 | 0.00 | 0.00 | 0.00 | 49 | 1016.8 |
| 20260503020048 | 69 | 269 | 0.0 | 0.0 | 0.00 | 0.00 | 0.00 | 48 | 1016.6 |
| 20260503014553 | 70 | 269 | 0.0 | 0.0 | 0.00 | 0.00 | 0.00 | 46 | 1016.5 |
| 20260503013054 | 71 | 269 | 0.0 | 0.0 | 0.00 | 0.00 | 0.00 | 45 | 1016.4 |
| 20260503011645 | 72 | 269 | 0.0 | 0.0 | 0.00 | 0.00 | 0.00 | 43 | 1016.4 |
| 20260503010045 | 74 | 269 | 0.0 | 0.0 | 0.00 | 0.00 | 0.00 | 41 | 1016.3 |
| 20260503004547 | 74 | 269 | 0.0 | 0.0 | 0.00 | 0.00 | 0.00 | 39 | 1016.3 |
| 20260503003049 | 75 | 269 | 0.0 | 3.0 | 0.00 | 0.00 | 0.00 | 38 | 1016.2 |
| 20260503001549 | 76 | 261 | 0.0 | 4.0 | 0.00 | 0.00 | 0.00 | 35 | 1016.2 |
| 20260503000048 | 78 | 259 | 0.0 | 4.0 | 0.00 | 0.00 | 0.00 | 32 | 1016.1 |
| 20260502234553 | 79 | 270 | 0.0 | 3.0 | 0.00 | 0.00 | 0.00 | 31 | 1016.2 |
| 20260502233040 | 79 | 281 | 1.0 | 4.0 | 0.00 | 0.00 | 0.00 | 30 | 1016.1 |